Location: Barruelo
(41.2448°N, 3.8231°W)
Time: 05:11:23
(UTC+00:00)

Cosmos 2227 Rocket - Pass Details

Date: 22 March 2026
Orbit: 836 x 845 km, 71.0° (Epoch: 15 April)

Event Time Altitude Azimuth Distance (km) Brightness Sun altitude
Rises 21:43:57 0° 332° (NNW) 3,413 6.2 -34.7°
Reaches altitude 10° 21:46:25 10° 329° (NNW) 2,474 5.3 -35.1°
Enters shadow 21:50:03 39° 311° (NW) 1,253 3.4 -35.6°
